Regional Weather Roundup
Issued by NWS Charleston, SC

Current Version | Previous Version | Text Only | Print | Product List | Glossary Off
Versions: 1 2 3 4 5 6 7 8 9 10 11 12 13 14 15 16 17 18 19 20 21 22 23 24 25 26 27 28 29 30 31 32 33 34 35 36 37 38 39 40 41 42 43 44 45 46 47 48 49 50

000
ASUS42 KCHS 200810
RWRCHS
REGIONAL WEATHER ROUNDUP
NATIONAL WEATHER SERVICE CHARLESTON SC
400 AM EDT SAT SEP 20 2014

NOTE: "FAIR" INDICATES FEW OR NO CLOUDS BELOW 12,000 FEET WITH NO
SIGNIFICANT WEATHER AND/OR OBSTRUCTIONS TO VISIBILITY.

NOT ALL STATIONS ARE QUALITY CONTROLLED BY THE NATIONAL
WEATHER SERVICE. USE DATA WITH CAUTION...ESPECIALLY
DEWPOINT OBSERVATIONS.

SCZ027-030-031-034>040-042>050-200900-
...SOUTH CAROLINA...

CITY           SKY/WX    TMP DP  RH WIND       PRES   REMARKS
N CHARLESTON   CLOUDY    72  68  87 N9        30.06S
WATERFRONT PRK   N/A     75 N/A N/A NE17        N/A
FORT JOHNSON   NOT AVBL
MOUNT PLEASANT DRIZZLE   72  70  94 N5        30.05F
JOHNS ISLAND   LGT RAIN  73  73 100 NE12      30.04F
PINOPOLIS        N/A     72  68  88 NE14      29.99F
MONCKS CORNER    N/A     70  70 100 NE8       30.07F
SUMMERVILLE    FAIR      70  70 100 NE7       30.07F
BEAUFORT MCAS  HVY RAIN  71  69  93 W6        30.04S FOG
BEAUFORT ARPT  LGT RAIN  72  72 100 NE15      30.03F
HILTON HEAD IS CLOUDY    75  72  88 NE9G17    30.03S
GEORGETOWN     NOT AVBL
WALTERBORO     PTSUNNY   70 N/A N/A NE5       30.06F
ORANGEBURG     PTCLDY    68  63  84 NE8       30.10F
BARNWELL       FAIR      66  66 100 NE8       30.09F
AIKEN          FAIR      64  64 100 NE10      30.14F
MANNING        FAIR      68 N/A N/A N7        30.10F
KINGSTREE      NOT AVBL
COLUMBIA       PTCLDY    69  59  70 NE8       30.12F
SUMTER         CLEAR     64  58  82 NE10      30.11F
FLORENCE       PTCLDY    65  59  81 NE10      30.13F
MYRTLE BEACH   CLOUDY    70  63  78 N12       30.09F
N MYRTLE BEACH CLOUDY    69  62  78 NE9       30.10F

$$

GAZ063-065-086>088-099>101-113>116-118-119-134-136>141-150-200900-
...GEORGIA...

CITY           SKY/WX    TMP DP  RH WIND       PRES   REMARKS
SAVANNAH ARPT  PTCLDY    72  68  87 NE9       30.02S
HUNTER AAF     MOCLDY    72  72 100 NE8       30.00S
FORT STEWART   CLOUDY    70  67  91 N10       29.99F
STATESBORO     NOT AVBL
SYLVANIA       CLOUDY    72  71  96 NE9       30.06F
CLAXTON        FAIR      70  70 100 NE7       30.03F
THOMSON        CLEAR     69  69 100 NE5       30.15F
AUGUSTA-BUSH   CLEAR     68  65  90 NE9       30.09F
AUGUSTA-DANIEL CLEAR     69  65  86 NE10      30.10F
SWAINSBORO     CLOUDY    70  70 100 E6        30.07S FOG
VIDALIA        CLOUDY    70  68  94 NE12      30.04S
ALMA           MOCLDY    69  67  93 VRB3      30.01S
WAYCROSS       PTCLDY    72  71  98 NE6       29.99F
JESUP          FAIR      72  70  94 NE6       29.99F
BRUNSWICK      CLOUDY    72  68  88 N5        29.98S
SAINT SIMONS   LGT RAIN  71  68  90 N10       29.95F

$$

SCZ027-028-034-036>038-045-046-048>050-GAZ119-141-200900-
...LAKE AND SUPPLEMENTAL COASTAL OBSERVATIONS...

STATION/POSITION TIME  TEMP    WIND        PRES    WAVE   SWELL
                       AIR SEA DIR/SP/G            HT/PER HT/PER/DIR
                 (UTC) (F)     (DEG/KT/KT) (MB)    (FT/S) (FT/S/D)
UPR LAKE MARION  NOT AVBL
WINYAH BAY       0700   79      70/ 17     1018.0S
LAKE MURRAY      0700   68      40/  4/  7 1020.0F
ACE BASIN NERRS  0700   70      60/  5     1018.0S
FORT PULASKI     0800   76      80/ 23/ 26 1016.2S
SAPELO ISLAND    0700   76      60/  3     1016.0S

$$

ANZ835-935-AMZ111-154-330-350-352-354-374-450-454-472-200900-
...C-MAN AND BUOY OBSERVATIONS...

STATION/POSITION TIME  TEMP    WIND        PRES    WAVE   SWELL
                       AIR SEA DIR/SP/G            HT/PER HT/PER/DIR
                 (UTC) (F)     (DEG/KT/KT) (MB)    (FT/S) (FT/S/D)
FOLLY BEACH CMAN 0700   77      80/ 18/ 21 1018.2F
BUOY 41004       0800   75 82   80/ 19/ 25 1016.0F   8/ 8
BUOY 41008       0800   78 84   70/ 17/ 21 1014.7R   6/ 6
5E ST. MARYS GA  0800      84                N/A     4/ 6
FRYING PAN BUOY  NOT AVBL
BUOY 41025       0800   77      70/ 16/ 19 1019.2F   6/ 8   3/ 60/ 8
CAPE LOOKOUT NC  0700   74      30/ 21/ 23 1020.1F
BUOY 41002       0739   76 82   80/ 19/ 23 1016.0F   7/ 8   3/ 40/ 8
BUOY 41010       0800   77 84   30/ 14/ 16 1012.6F   5/ 6   3/ 30/ 6
BUOY 41012       NOT AVBL
ST AUGUSTINE FL  0800   72     240/  5/  6 1014.1F
CAPERS NEARSHORE 0700   76      60/ 19/ 23   N/A
FRIPP NEARSHORE  NOT AVBL


$$


USA.gov is the U.S. government's official web portal to all federal, state and local government web resources and services.